Location: Bow
(51.5261°N, 0.0167°W)
Time: 04:55:37
(UTC+00:00)

CZ-4 R/B - Pass Details

Date: 18 September 2020
Orbit: 530 x 600 km, 97.7° (Epoch: 20 October)

Event Time Altitude Azimuth Distance (km) Brightness Sun altitude
Rises 18:45:12 0° 178° (S) 2,838 4.8 -6.8°
Reaches altitude 10° 18:47:25 10° 183° (S) 1,940 4.0 -7.1°
Maximum altitude 18:51:32 51° 260° (W) 758 2.5 -7.7°
Drops below altitude 10° 18:55:39 10° 337° (NNW) 1,941 4.6 -8.4°
Sets 18:57:53 0° 343° (NNW) 2,840 5.4 -8.7°
